Weather in Tangalle

Sri Lanka     6°01′38″N   80°47′41″E
temp.,
°C
wind,
m/s
gust,
m/s
humid.,
%
clouds,
%
prec.,
mm/h
press.,
hPa
HPBL,
m
11 april, sun
sun1123:30+25w22845 0.4 1011261
02:30+24wnw228712 0.2 1010267
05:30+24nw118918 0.2 1011119
08:30+27nw117673 0.0 1013289
11:30+30sse326015 0.0 10121163
14:30+30s336317 0.0 1010746
17:30+28s237515 0.3 1010373
20:30+26ssw118289 0.4 1013279
12 april, mon
mon1223:30+26wsw118264 1.2 1013154
02:30+25nw018634 1.0 1011136
05:30+24n118920 1.3 1011123
08:30+27ne227827 0.0 1013412
11:30+30se436443 0.0 10121108
14:30+30s326234 0.3 1010960
17:30+27ssw237920 1.1 1010446
20:30+26e0181100 0.4 1012316
13 april, tue
tue1323:30+26nne018199 0.4 1012340
02:30+26ne1281100 0.1 1010390
05:30+25nne128562 0.2 1011272
08:30+28ne227415 0.0 1013501
11:30+30se335992 0.0 10121042
14:30+30se445941 0.0 1009886
17:30+29s2365100 0.0 1010668
20:30+27sse127069 0.0 1012430
14 april, wed
wed1423:30+27se116983 0.0 1012396
02:30+26ese01746 0.0 1010379
05:30+25nnw017742 0.0 1011452
08:30+29ne01625 0.0 1013793
11:30+30se435799 0.0 10121154
14:30+30sse4461100 0.0 1009881
17:30+29ssw34719 0.0 1009794
20:30+27wsw228011 0.2 1012282
15 april, thu
thu1523:30+26wsw11826 0.4 1012273
02:30+26ssw128246 0.1 1010378
05:30+26ssw127776 0.2 1011430
08:30+28sw227193 0.1 1013498
11:30+30s436177 0.1 10121213
14:30+30ssw436134 0.0 1009930
17:30+28sw456939 0.0 1009480
20:30+26sw2373100 0.0 1011341